Home   Weather   Fairfield   Past weeks
Flag for New Zealand

Past Weather in Fairfield, New Zealand — Yesterday and Last 2 Weeks

Now
62 °F

Refreshingly cool.


Feels Like: 62 °F
Forecast: 63 / 45 °F
Wind: 18 mph from Northwest

Location: Dunedin Aerodrome AWS
Current Time: Sep 22, 2020 at 5:09:25 am
Latest Report: Sep 22, 2020 at 4:00 am
Visibility: 31 mi
Pressure29.85 "Hg
Humidity: 25%
Dew Point: 25 °F
Location of FairfieldLocation

Past Weather in Fairfield — Graph

°F

Fairfield Temperature Yesterday

Maximum temperature yesterday: 63 °F (at 3:00 pm)
Minimum temperature yesterday: 39 °F (at 7:00 am)
Average temperature yesterday: 48 °F

High & Low Weather Summary for the Past Weeks

 TemperatureHumidityPressure
High68 °F (Sep 14, 1:00 pm)100% (Sep 9, 2:00 am)30.47 "Hg (Sep 9, 2:00 am)
Low26 °F (Sep 12, 7:00 am)27% (Sep 22, 3:00 am)29.38 "Hg (Sep 15, 11:00 am)
Average47 °F76%29.98 "Hg
* Reported Sep 7 3:00 am — Sep 22 3:00 am, Fairfield. Weather by CustomWeather, © 2020

Note: Actual official high and low records may vary slightly from our data, if they occured in-between our weather recording intervals... More about our weather records

Fairfield Weather History for the Previous 24 Hours

Scroll right to see more
 ConditionsComfort  
Time TempWeatherWind HumidityBarometerVisibility
3:00 am
Tue, Sep 22
61 °FRefreshingly cool.25 mph27%29.85 "Hg31 mi
2:00 am60 °FRefreshingly cool.17 mph28%29.90 "Hg31 mi
1:00 am56 °FRefreshingly cool.10 mph36%29.93 "Hg31 mi
12:00 am53 °FCool.3 mph45%29.94 "Hg31 mi
11:00 pm
Mon, Sep 21
54 °FCool.14 mph49%29.95 "Hg12 mi
10:00 pm46 °FCool.3 mph87%29.97 "Hg12 mi
9:00 pm47 °FCool.5 mph90%29.98 "Hg12 mi
8:00 pm47 °FCool.3 mph90%29.99 "Hg12 mi
7:00 pm51 °FCool.1 mph75%30.00 "Hg12 mi
6:00 pm57 °FCool.5 mph69%30.01 "Hg12 mi
5:00 pm59 °FCool.8 mph62%30.01 "Hg12 mi
4:00 pm61 °FRefreshingly cool.10 mph59%30.01 "Hg12 mi
3:00 pm63 °FMild.8 mph64%30.01 "Hg12 mi
12:00 pm60 °FCool.2 mph68%30.08 "Hg12 mi
11:00 am53 °FCool.2 mph86%30.11 "Hg6 mi
10:00 am47 °FCool.5 mph99%30.13 "Hg12 mi
9:00 am42 °FDuststorm.1 mph100%30.16 "Hg1 mi
8:00 am39 °FDuststorm.2 mph100%30.18 "Hg0 mi
7:00 am39 °FDuststorm.No wind100%30.19 "Hg0 mi
6:00 am39 °FDuststorm.2 mph99%30.19 "Hg0 mi
5:00 am40 °FDuststorm.3 mph100%30.20 "Hg0 mi
Weather by CustomWeather, © 2020

See weather overview